Location: PSU-Greenbush Astrophysical Observatory
(37.5140°N, 94.9880°W)
Time: 02:48:52
(UTC-06:00)

deb Explorer IX - Visible Passes

Search period start: 19 January 2020 00:00
Search period end: 29 January 2020 00:00
Orbit: 548 x 1101 km, 38.8° (Epoch: 19 January)

Date Brightness Start Highest point End Pass type
(mag) Time Alt. Az. Time Alt. Az. Time Alt. Az.
19 Jan ? 04:17:32 30° ESE 04:17:32 30° ESE 04:20:13 10° ESE visible
19 Jan ? 05:58:54 27° WSW 06:01:13 37° SSW 06:06:08 10° SE visible
20 Jan ? 03:56:34 19° ESE 03:56:34 19° ESE 03:58:02 10° ESE visible
20 Jan ? 05:37:55 35° SW 05:38:54 37° SSW 05:43:58 10° SE visible
21 Jan ? 03:35:38 11° ESE 03:35:38 11° ESE 03:35:50 10° ESE visible
21 Jan ? 05:17:00 37° SSW 05:17:00 37° SSW 05:21:48 10° SE visible
22 Jan ? 04:56:07 31° S 04:56:07 31° S 04:59:36 10° SE visible
23 Jan ? 04:35:18 21° SSE 04:35:18 21° SSE 04:37:22 10° SE visible
24 Jan ? 04:14:31 13° SSE 04:14:31 13° SSE 04:15:08 10° SSE visible
24 Jan ? 20:31:58 10° SSW 20:33:19 15° SSW 20:33:19 15° SSW visible
25 Jan ? 20:09:37 10° SSW 20:12:36 23° S 20:12:36 23° S visible
26 Jan ? 19:47:18 10° SSW 19:51:51 28° SSE 19:51:51 28° SSE visible
26 Jan ? 21:32:47 10° WSW 21:33:13 12° WSW 21:33:13 12° WSW visible
27 Jan ? 19:25:00 10° SSW 19:30:19 29° SE 19:31:03 28° SE visible
27 Jan ? 21:10:26 10° WSW 21:12:25 21° WSW 21:12:25 21° WSW visible
28 Jan ? 19:02:42 10° SSW 19:07:53 28° SE 19:10:11 23° ESE visible
28 Jan ? 20:48:07 10° WSW 20:51:33 34° WSW 20:51:33 34° WSW visible
